GFSSGP_500_temp_207.txt.gz
Temp
-11 -11 -11 -10 -10 -10 -10 -10 -10 -9 -10 -10 -10 -10 -9 -9 -10 -10 -10 -10 -9 -9 -10 -9 -9 -9 -8 -8 -8 -8 -8 -8 -8 -8 -8 -7 -8 -8 -8 -8 -8 -8 -8 -8 -8 -8 -8 -8 -8
-11 -11 -11 -11 -10 -10 -10 -10 -9 -10 -11 -11 -10 -10 -10 -10 -10 -10 -10 -10 -9 -9 -9 -9 -9 -8 -8 -8 -8 -8 -8 -8 -8 -8 -8 -8 -8 -8 -8 -8 -8 -8 -8 -8 -8 -8 -8 -8 -8
-12 -12 -11 -11 -10 -10 -10 -10 -9 -10 -11 -11 -10 -10 -10 -10 -10 -10 -10 -9 -9 -9 -9 -8 -8 -8 -8 -8 -8 -8 -8 -8 -8 -8 -8 -8 -8 -8 -8 -8 -8 -8 -8 -8 -8 -8 -8 -8 -9
-12 -12 -11 -11 -11 -11 -11 -10 -10 -10 -10 -10 -10 -10 -10 -10 -10 -10 -10 -9 -9 -9 -8 -8 -8 -8 -8 -8 -8 -8 -8 -8 -8 -8 -8 -8 -8 -8 -8 -8 -8 -8 -8 -8 -9 -9 -9 -9 -9
-13 -12 -12 -11 -11 -11 -10 -10 -11 -10 -10 -10 -10 -10 -10 -10 -9 -9 -10 -9 -9 -9 -8 -8 -8 -8 -8 -8 -8 -8 -8 -8 -8 -8 -8 -8 -8 -8 -8 -8 -8 -9 -9 -9 -9 -9 -9 -9 -9
-13 -12 -11 -11 -11 -11 -11 -11 -11 -10 -10 -10 -10 -10 -10 -10 -10 -9 -9 -9 -9 -8 -8 -8 -8 -8 -8 -8 -8 -8 -8 -8 -8 -8 -8 -8 -8 -8 -9 -9 -9 -9 -9 -9 -9 -9 -9 -9 -9
-13 -12 -12 -11 -11 -11 -11 -10 -11 -11 -10 -10 -10 -10 -10 -10 -10 -9 -9 -9 -8 -8 -8 -8 -8 -8 -8 -8 -8 -8 -8 -8 -8 -8 -8 -8 -9 -9 -9 -9 -9 -9 -9 -9 -9 -9 -9 -9 -9
-12 -12 -12 -11 -11 -12 -11 -11 -11 -11 -12 -9 -10 -10 -10 -10 -10 -9 -9 -9 -8 -8 -8 -8 -8 -8 -8 -8 -8 -8 -8 -8 -8 -8 -8 -9 -9 -9 -8 -9 -9 -9 -9 -9 -9 -9 -9 -10 -9
-12 -12 -12 -11 -12 -13 -11 -12 -11 -11 -11 -10 -10 -10 -9 -9 -9 -9 -9 -9 -8 -8 -8 -8 -8 -8 -8 -8 -8 -8 -8 -8 -8 -8 -9 -9 -9 -9 -9 -9 -9 -9 -9 -9 -9 -9 -10 -10 -10
-12 -12 -12 -12 -12 -12 -12 -11 -10 -10 -11 -11 -10 -10 -9 -9 -9 -9 -9 -8 -8 -8 -8 -8 -8 -8 -8 -8 -8 -8 -8 -8 -9 -9 -9 -9 -9 -9 -9 -9 -9 -9 -9 -10 -10 -10 -10 -10 -10
-12 -11 -12 -12 -13 -12 -12 -11 -10 -9 -10 -11 -10 -10 -9 -9 -9 -9 -9 -8 -8 -7 -7 -8 -8 -8 -8 -8 -8 -8 -8 -9 -9 -9 -9 -9 -9 -9 -9 -9 -10 -10 -10 -10 -10 -10 -10 -10 -10
-13 -12 -13 -14 -13 -12 -12 -12 -11 -10 -11 -11 -11 -10 -9 -9 -9 -9 -9 -8 -8 -8 -8 -8 -8 -8 -8 -8 -8 -8 -9 -9 -9 -9 -9 -9 -9 -9 -10 -10 -10 -10 -10 -10 -10 -10 -10 -11 -11
-13 -13 -13 -14 -14 -13 -12 -11 -12 -10 -10 -10 -11 -10 -9 -9 -9 -9 -9 -8 -8 -8 -8 -8 -8 -8 -8 -8 -9 -9 -9 -9 -9 -9 -9 -9 -9 -10 -10 -10 -10 -10 -10 -10 -10 -11 -11 -11 -11
-12 -13 -13 -13 -14 -13 -12 -12 -12 -11 -10 -10 -11 -10 -10 -9 -9 -8 -8 -9 -8 -8 -8 -8 -8 -8 -8 -9 -9 -9 -9 -9 -9 -9 -9 -9 -10 -10 -10 -10 -10 -10 -10 -10 -10 -11 -11 -11 -11
-14 -14 -13 -13 -13 -12 -12 -12 -11 -12 -10 -10 -11 -10 -10 -9 -9 -9 -9 -9 -8 -8 -8 -8 -8 -8 -8 -9 -9 -9 -9 -9 -9 -9 -10 -10 -10 -10 -10 -10 -10 -10 -10 -10 -11 -11 -11 -11 -11
-15 -15 -13 -13 -13 -12 -12 -12 -11 -12 -11 -10 -11 -10 -10 -10 -9 -9 -9 -8 -8 -8 -8 -8 -8 -8 -9 -9 -9 -9 -9 -9 -9 -10 -10 -10 -10 -11 -10 -10 -10 -10 -11 -11 -11 -11 -11 -11 -11
-15 -14 -13 -13 -13 -13 -12 -12 -12 -12 -11 -10 -11 -10 -10 -10 -9 -9 -9 -9 -9 -8 -8 -9 -8 -9 -9 -9 -9 -9 -9 -10 -10 -10 -11 -10 -10 -11 -10 -10 -10 -11 -11 -11 -11 -11 -11 -11 -11
-14 -13 -13 -13 -12 -13 -13 -12 -13 -12 -11 -11 -11 -10 -10 -10 -10 -9 -9 -9 -8 -8 -9 -9 -8 -9 -9 -9 -9 -9 -10 -10 -10 -10 -11 -11 -11 -11 -11 -11 -11 -11 -11 -11 -11 -11 -11 -12 -12
-14 -14 -13 -12 -13 -13 -13 -12 -12 -13 -11 -11 -11 -11 -10 -10 -10 -10 -10 -9 -9 -9 -9 -9 -9 -9 -9 -9 -10 -10 -10 -11 -11 -11 -11 -11 -11 -11 -11 -11 -11 -11 -11 -11 -11 -11 -11 -12 -12
-15 -14 -14 -13 -14 -13 -13 -13 -13 -13 -12 -11 -11 -11 -10 -10 -10 -10 -10 -10 -9 -10 -10 -9 -10 -10 -10 -10 -10 -10 -11 -11 -11 -11 -11 -11 -11 -11 -11 -11 -11 -11 -11 -12 -12 -11 -11 -12 -12
-15 -14 -14 -13 -14 -13 -13 -13 -13 -12 -12 -11 -11 -11 -11 -10 -10 -11 -11 -10 -10 -10 -10 -10 -10 -10 -10 -10 -11 -11 -11 -11 -11 -11 -11 -12 -12 -11 -12 -12 -12 -12 -12 -12 -12 -12 -12 -12 -12
-15 -14 -15 -15 -14 -13 -13 -12 -13 -12 -12 -11 -11 -10 -11 -11 -10 -11 -11 -11 -11 -11 -10 -10 -10 -11 -11 -11 -11 -11 -11 -12 -12 -12 -12 -12 -12 -12 -12 -12 -12 -12 -12 -12 -12 -12 -13 -13 -13
-15 -14 -15 -15 -14 -13 -13 -13 -11 -12 -11 -11 -10 -10 -11 -11 -11 -10 -11 -11 -11 -11 -11 -11 -11 -11 -11 -11 -11 -12 -12 -12 -12 -12 -12 -12 -12 -12 -12 -12 -12 -12 -12 -12 -13 -13 -13 -13 -13
-15 -15 -14 -14 -14 -14 -13 -12 -11 -11 -10 -11 -11 -11 -10 -11 -11 -11 -11 -11 -11 -11 -11 -11 -11 -11 -11 -12 -12 -12 -12 -12 -12 -12 -12 -12 -12 -12 -12 -13 -12 -12 -13 -13 -13 -13 -14 -14 -14
-16 -15 -15 -14 -15 -13 -13 -12 -9 -11 -11 -11 -12 -12 -11 -11 -12 -11 -11 -11 -11 -11 -11 -11 -11 -12 -12 -12 -12 -12 -12 -12 -13 -12 -12 -12 -12 -12 -12 -13 -13 -13 -13 -13 -14 -14 -14 -14 -15
-15 -15 -15 -15 -14 -13 -13 -11 -9 -11 -11 -11 -12 -13 -12 -11 -11 -12 -12 -12 -12 -12 -12 -12 -12 -12 -12 -12 -12 -13 -13 -13 -13 -13 -12 -13 -13 -13 -13 -13 -13 -13 -13 -14 -14 -14 -15 -15 -15
-15 -15 -15 -15 -14 -14 -12 -10 -9 -11 -11 -11 -11 -12 -12 -11 -11 -11 -12 -12 -12 -12 -12 -12 -12 -12 -12 -12 -13 -13 -13 -13 -13 -13 -13 -13 -13 -13 -13 -13 -13 -13 -14 -14 -14 -15 -15 -15 -15
-15 -14 -15 -14 -14 -14 -12 -11 -11 -12 -12 -12 -11 -11 -12 -12 -12 -11 -12 -12 -12 -12 -12 -12 -12 -12 -12 -12 -12 -13 -13 -13 -13 -13 -13 -13 -13 -13 -14 -14 -13 -14 -14 -14 -15 -15 -15 -15 -16
-15 -15 -15 -14 -14 -14 -13 -12 -12 -12 -12 -12 -12 -12 -12 -12 -12 -12 -12 -12 -12 -12 -12 -12 -12 -12 -12 -12 -12 -13 -13 -13 -13 -13 -14 -13 -14 -14 -14 -14 -14 -14 -15 -15 -15 -16 -16 -16 -17
-15 -15 -15 -14 -14 -14 -13 -13 -13 -12 -12 -12 -12 -12 -12 -12 -12 -11 -12 -12 -11 -12 -12 -12 -12 -12 -12 -12 -12 -12 -13 -13 -13 -13 -15 -14 -14 -14 -14 -14 -14 -14 -15 -16 -16 -16 -16 -16 -17

GFSSGP_500_temp_210.txt.gz
Temp
-11 -10 -10 -11 -11 -11 -10 -10 -10 -10 -10 -10 -9 -10 -10 -10 -10 -10 -10 -10 -10 -10 -10 -9 -9 -9 -9 -9 -9 -8 -8 -8 -8 -8 -8 -8 -8 -8 -8 -8 -8 -8 -8 -8 -8 -8 -8 -8 -8
-11 -11 -10 -11 -11 -11 -11 -10 -10 -9 -9 -10 -9 -10 -10 -11 -10 -10 -10 -10 -10 -9 -9 -9 -9 -9 -9 -9 -9 -8 -8 -8 -8 -8 -8 -8 -8 -8 -8 -8 -8 -8 -8 -8 -8 -8 -8 -8 -8
-11 -11 -11 -11 -11 -11 -11 -10 -10 -9 -9 -9 -10 -11 -10 -10 -10 -10 -10 -10 -10 -10 -9 -9 -9 -9 -9 -9 -8 -8 -8 -8 -8 -8 -8 -8 -8 -8 -8 -8 -8 -8 -8 -8 -8 -8 -9 -9 -9
-11 -11 -11 -11 -11 -12 -11 -11 -10 -10 -9 -9 -10 -10 -11 -10 -10 -10 -10 -10 -10 -10 -9 -9 -8 -8 -9 -9 -8 -8 -8 -8 -8 -8 -8 -8 -8 -8 -8 -8 -8 -8 -8 -8 -9 -9 -9 -9 -9
-11 -11 -11 -11 -11 -12 -11 -11 -10 -10 -9 -10 -10 -11 -11 -10 -10 -10 -10 -10 -10 -9 -9 -8 -8 -8 -8 -8 -8 -8 -8 -8 -8 -8 -8 -8 -9 -9 -9 -8 -8 -8 -9 -9 -9 -9 -9 -9 -9
-11 -11 -11 -11 -12 -12 -11 -11 -11 -10 -10 -10 -10 -11 -10 -10 -10 -10 -10 -9 -9 -9 -9 -8 -8 -8 -8 -8 -8 -8 -8 -8 -8 -8 -8 -8 -9 -9 -9 -8 -8 -8 -9 -9 -9 -9 -9 -9 -9
-12 -11 -11 -11 -13 -12 -11 -11 -11 -11 -10 -10 -10 -10 -10 -10 -10 -10 -9 -9 -9 -8 -9 -8 -8 -8 -8 -8 -8 -8 -8 -8 -8 -8 -8 -9 -9 -9 -9 -9 -9 -9 -9 -9 -9 -9 -9 -10 -10
-12 -11 -11 -12 -13 -13 -12 -11 -11 -11 -10 -9 -10 -10 -10 -10 -10 -10 -9 -9 -9 -8 -8 -8 -8 -8 -8 -8 -8 -8 -8 -8 -8 -9 -9 -9 -9 -9 -9 -9 -9 -9 -9 -9 -9 -9 -10 -10 -10
-13 -11 -10 -11 -13 -13 -12 -11 -11 -11 -10 -9 -11 -11 -10 -10 -10 -10 -10 -9 -9 -8 -8 -8 -8 -8 -8 -8 -8 -8 -8 -9 -9 -9 -9 -9 -9 -9 -9 -9 -9 -9 -9 -9 -10 -10 -10 -10 -10
-12 -11 -10 -11 -12 -13 -13 -12 -11 -10 -10 -10 -11 -11 -10 -10 -10 -10 -10 -9 -9 -8 -8 -8 -8 -8 -8 -8 -9 -9 -9 -9 -9 -9 -9 -9 -9 -9 -9 -9 -9 -10 -10 -10 -10 -10 -10 -10 -10
-12 -10 -11 -12 -13 -14 -14 -12 -11 -11 -10 -10 -10 -11 -10 -10 -9 -9 -9 -9 -9 -8 -8 -8 -8 -8 -9 -9 -9 -9 -9 -9 -9 -9 -9 -9 -9 -9 -9 -10 -10 -10 -10 -10 -10 -10 -10 -10 -11
-12 -11 -12 -13 -13 -13 -14 -13 -12 -11 -11 -11 -10 -10 -10 -10 -9 -9 -9 -9 -9 -8 -8 -8 -8 -8 -9 -9 -9 -9 -9 -9 -9 -9 -9 -9 -9 -9 -10 -10 -10 -10 -10 -10 -10 -10 -10 -11 -11
-12 -12 -12 -13 -13 -14 -14 -13 -12 -11 -11 -12 -10 -9 -10 -10 -9 -9 -9 -9 -8 -8 -8 -8 -8 -8 -9 -9 -9 -9 -9 -9 -9 -9 -9 -9 -9 -10 -10 -10 -10 -10 -10 -10 -10 -10 -10 -11 -11
-12 -13 -13 -14 -13 -13 -14 -14 -12 -12 -11 -12 -12 -10 -10 -10 -9 -9 -9 -9 -9 -8 -8 -8 -8 -8 -9 -9 -9 -9 -9 -9 -9 -9 -9 -10 -10 -10 -10 -10 -10 -10 -10 -10 -10 -11 -10 -11 -11
-13 -13 -14 -15 -14 -14 -14 -13 -12 -13 -12 -11 -12 -11 -10 -10 -9 -9 -9 -9 -9 -9 -8 -8 -9 -8 -9 -9 -9 -9 -9 -9 -9 -9 -10 -10 -10 -10 -10 -10 -11 -11 -10 -11 -11 -11 -11 -11 -11
-14 -14 -14 -13 -14 -13 -14 -12 -13 -13 -13 -11 -12 -11 -10 -10 -9 -10 -9 -9 -9 -9 -9 -8 -9 -9 -9 -9 -9 -9 -9 -9 -9 -10 -10 -10 -11 -10 -11 -11 -11 -11 -11 -11 -11 -11 -11 -11 -11
-15 -14 -13 -13 -14 -14 -13 -12 -13 -13 -12 -12 -12 -12 -11 -10 -10 -10 -10 -9 -9 -9 -9 -8 -9 -9 -9 -9 -9 -9 -9 -9 -10 -10 -10 -11 -11 -11 -11 -11 -11 -11 -11 -11 -11 -11 -11 -11 -11
-15 -13 -12 -13 -13 -13 -13 -12 -13 -13 -12 -12 -12 -11 -11 -11 -10 -10 -10 -9 -9 -9 -9 -9 -9 -9 -9 -9 -9 -9 -10 -10 -10 -10 -11 -11 -11 -11 -11 -11 -11 -11 -11 -11 -11 -11 -11 -11 -12
-14 -15 -14 -13 -14 -14 -14 -13 -13 -13 -12 -12 -12 -12 -11 -11 -11 -10 -10 -10 -9 -9 -9 -9 -9 -9 -9 -10 -10 -10 -10 -10 -10 -11 -11 -11 -11 -11 -12 -11 -11 -11 -11 -11 -11 -12 -12 -12 -12
-16 -15 -14 -14 -15 -14 -14 -13 -12 -14 -13 -12 -12 -12 -11 -11 -10 -10 -10 -10 -10 -10 -10 -9 -9 -9 -9 -9 -10 -10 -10 -10 -11 -11 -11 -12 -12 -11 -12 -12 -12 -11 -11 -12 -12 -12 -12 -12 -12
-17 -14 -14 -14 -15 -14 -14 -13 -13 -13 -13 -12 -11 -12 -11 -11 -11 -10 -10 -10 -10 -10 -10 -10 -9 -10 -10 -10 -10 -10 -11 -11 -11 -12 -12 -12 -12 -12 -12 -12 -12 -12 -12 -12 -12 -12 -12 -12 -12
-18 -16 -15 -15 -15 -15 -14 -13 -12 -14 -13 -12 -11 -11 -11 -11 -11 -11 -10 -11 -11 -11 -11 -10 -10 -10 -10 -10 -11 -11 -11 -11 -12 -12 -12 -12 -12 -12 -12 -12 -12 -12 -12 -12 -12 -12 -13 -13 -13
-17 -17 -15 -15 -14 -15 -15 -14 -11 -13 -13 -11 -10 -11 -11 -11 -11 -11 -10 -11 -11 -11 -11 -11 -11 -11 -10 -11 -11 -11 -11 -12 -12 -12 -13 -12 -12 -12 -12 -12 -12 -12 -12 -12 -13 -13 -13 -13 -13
-17 -16 -15 -16 -16 -16 -15 -14 -11 -11 -12 -12 -11 -11 -11 -11 -11 -11 -11 -11 -11 -12 -12 -11 -11 -11 -11 -11 -12 -12 -12 -12 -12 -12 -13 -13 -13 -13 -13 -13 -13 -13 -13 -13 -13 -13 -13 -14 -14
-18 -16 -16 -16 -16 -15 -15 -14 -10 -12 -12 -12 -12 -11 -11 -11 -12 -12 -11 -11 -11 -11 -11 -11 -11 -11 -11 -12 -12 -12 -12 -12 -12 -13 -13 -13 -13 -13 -13 -13 -13 -13 -13 -13 -13 -13 -14 -14 -14
-16 -17 -16 -16 -15 -15 -15 -13 -10 -11 -12 -12 -12 -12 -12 -11 -12 -12 -11 -12 -12 -12 -12 -12 -12 -12 -12 -12 -13 -13 -12 -13 -13 -13 -13 -13 -13 -13 -13 -13 -13 -13 -13 -14 -14 -14 -14 -15 -15
-17 -15 -15 -15 -14 -15 -14 -12 -11 -11 -12 -12 -12 -12 -11 -11 -11 -12 -13 -12 -12 -12 -12 -12 -12 -12 -12 -12 -12 -13 -13 -13 -13 -13 -13 -13 -13 -13 -13 -13 -13 -14 -14 -14 -14 -14 -15 -15 -15
-15 -15 -16 -15 -15 -15 -14 -13 -13 -13 -13 -13 -13 -12 -12 -11 -12 -12 -13 -12 -12 -12 -12 -12 -12 -12 -13 -12 -12 -12 -13 -13 -13 -13 -13 -13 -13 -13 -13 -14 -14 -14 -14 -14 -14 -15 -15 -15 -16
-15 -15 -16 -16 -16 -15 -15 -14 -14 -13 -13 -12 -12 -12 -12 -12 -12 -12 -13 -13 -13 -13 -13 -12 -12 -12 -12 -12 -12 -12 -12 -12 -12 -13 -13 -13 -13 -13 -13 -14 -14 -14 -15 -15 -15 -15 -15 -15 -16
-15 -15 -14 -16 -15 -14 -15 -14 -14 -14 -13 -12 -12 -12 -12 -11 -12 -12 -13 -14 -13 -13 -13 -12 -12 -12 -12 -12 -12 -12 -12 -12 -12 -12 -13 -13 -13 -13 -13 -14 -15 -15 -15 -15 -15 -15 -15 -15 -16

GFSSGP_500_temp_216.txt.gz
Temp
-11 -11 -11 -11 -10 -10 -10 -10 -10 -9 -10 -11 -11 -10 -10 -10 -10 -10 -11 -10 -10 -10 -10 -10 -9 -9 -9 -9 -9 -9 -9 -9 -9 -8 -8 -8 -8 -8 -8 -8 -8 -8 -8 -8 -9 -9 -9 -9 -9
-11 -11 -10 -10 -10 -10 -10 -10 -10 -10 -10 -10 -11 -11 -10 -10 -10 -11 -11 -11 -10 -10 -10 -10 -9 -9 -9 -9 -9 -9 -9 -9 -9 -9 -9 -8 -8 -8 -8 -8 -8 -8 -9 -9 -9 -9 -9 -9 -9
-11 -11 -11 -10 -10 -10 -11 -10 -10 -11 -10 -10 -10 -11 -10 -10 -10 -11 -11 -11 -11 -10 -10 -9 -9 -9 -9 -9 -9 -9 -9 -9 -9 -9 -9 -9 -8 -8 -8 -8 -9 -9 -9 -9 -9 -9 -9 -10 -10
-11 -11 -11 -10 -10 -11 -11 -11 -10 -10 -10 -10 -10 -11 -10 -10 -10 -11 -11 -11 -11 -11 -10 -10 -9 -9 -9 -9 -9 -9 -9 -9 -9 -9 -9 -9 -8 -8 -8 -9 -9 -9 -9 -9 -9 -9 -10 -10 -10
-11 -11 -10 -10 -9 -11 -11 -11 -10 -11 -10 -10 -10 -11 -10 -10 -11 -11 -11 -11 -11 -11 -10 -10 -9 -9 -9 -9 -9 -9 -9 -9 -9 -9 -9 -8 -9 -9 -9 -9 -9 -9 -9 -9 -9 -9 -10 -10 -10
-11 -11 -10 -10 -10 -10 -11 -11 -11 -11 -10 -11 -11 -11 -11 -10 -10 -11 -11 -11 -11 -11 -10 -10 -9 -9 -9 -9 -9 -9 -9 -9 -9 -9 -9 -9 -9 -9 -9 -9 -9 -9 -9 -9 -9 -10 -10 -10 -10
-11 -11 -10 -10 -10 -11 -11 -11 -11 -11 -11 -11 -11 -11 -11 -10 -10 -11 -11 -11 -11 -10 -10 -10 -9 -9 -9 -9 -9 -9 -9 -9 -9 -9 -9 -9 -9 -9 -9 -9 -9 -9 -9 -9 -10 -10 -10 -10 -10
-11 -11 -11 -11 -10 -11 -12 -12 -11 -12 -11 -11 -11 -11 -12 -11 -10 -11 -11 -11 -11 -11 -10 -10 -10 -9 -9 -9 -9 -9 -9 -9 -9 -9 -9 -9 -9 -9 -9 -9 -9 -9 -9 -10 -10 -10 -10 -10 -10
-11 -11 -11 -11 -11 -11 -12 -13 -12 -11 -11 -11 -11 -11 -12 -11 -11 -11 -11 -11 -11 -11 -11 -10 -10 -9 -9 -9 -9 -9 -9 -9 -9 -9 -9 -9 -9 -9 -9 -9 -10 -9 -10 -10 -10 -10 -10 -10 -10
-11 -11 -11 -11 -12 -12 -12 -13 -13 -12 -11 -12 -11 -12 -11 -11 -11 -11 -11 -11 -11 -11 -11 -11 -10 -10 -9 -9 -9 -9 -9 -9 -9 -9 -9 -9 -9 -9 -9 -10 -10 -10 -10 -10 -10 -10 -10 -10 -10
-12 -11 -11 -11 -12 -12 -12 -12 -13 -13 -12 -12 -12 -11 -11 -11 -11 -11 -11 -11 -11 -10 -10 -10 -10 -10 -9 -9 -9 -9 -9 -9 -9 -9 -9 -9 -9 -9 -9 -10 -10 -10 -10 -10 -10 -10 -10 -10 -10
-12 -12 -12 -12 -12 -12 -12 -12 -12 -13 -13 -12 -12 -12 -11 -11 -11 -10 -11 -11 -11 -11 -10 -10 -9 -9 -9 -9 -9 -9 -9 -9 -9 -9 -9 -9 -9 -10 -10 -10 -10 -10 -10 -10 -10 -11 -11 -11 -11
-12 -12 -12 -12 -12 -12 -12 -12 -12 -12 -13 -13 -12 -12 -12 -12 -11 -11 -10 -11 -11 -10 -10 -10 -9 -9 -9 -9 -9 -9 -9 -9 -9 -9 -9 -9 -10 -10 -10 -10 -10 -10 -10 -10 -11 -11 -11 -11 -11
-12 -12 -12 -12 -12 -12 -12 -12 -11 -12 -13 -13 -12 -12 -12 -13 -12 -11 -11 -11 -11 -11 -10 -10 -10 -10 -9 -9 -9 -9 -9 -9 -9 -9 -10 -10 -10 -10 -10 -10 -10 -10 -10 -11 -11 -11 -11 -11 -11
-12 -12 -12 -12 -12 -12 -12 -12 -10 -11 -12 -13 -12 -12 -13 -12 -12 -13 -12 -11 -11 -10 -10 -10 -10 -10 -9 -9 -9 -9 -9 -9 -9 -10 -10 -10 -10 -10 -11 -11 -11 -11 -11 -11 -11 -11 -11 -11 -11
-13 -12 -12 -13 -13 -13 -13 -11 -12 -12 -12 -13 -12 -12 -12 -13 -13 -13 -12 -12 -11 -11 -11 -10 -10 -10 -10 -9 -9 -9 -9 -9 -9 -10 -10 -10 -10 -11 -11 -11 -11 -11 -11 -11 -11 -11 -11 -11 -11
-13 -12 -12 -13 -14 -13 -13 -11 -12 -13 -12 -13 -13 -12 -12 -13 -13 -13 -13 -12 -12 -11 -11 -10 -10 -10 -10 -10 -9 -9 -9 -9 -9 -10 -10 -10 -11 -11 -11 -11 -11 -11 -11 -11 -11 -11 -11 -12 -12
-16 -16 -16 -15 -16 -15 -13 -12 -12 -13 -13 -13 -14 -14 -13 -13 -13 -13 -13 -13 -12 -12 -11 -11 -10 -10 -10 -10 -9 -9 -9 -10 -10 -10 -10 -11 -11 -11 -11 -11 -11 -11 -12 -12 -12 -12 -12 -12 -12
-18 -17 -16 -16 -16 -17 -14 -13 -13 -13 -13 -13 -13 -14 -13 -13 -13 -13 -13 -13 -12 -12 -11 -11 -11 -11 -10 -10 -10 -10 -10 -10 -10 -10 -10 -11 -11 -11 -12 -12 -12 -12 -12 -12 -12 -12 -12 -12 -12
-18 -18 -18 -17 -17 -18 -17 -14 -13 -13 -13 -14 -14 -13 -14 -14 -13 -13 -13 -13 -13 -12 -12 -11 -11 -11 -10 -10 -10 -10 -10 -10 -10 -10 -10 -11 -11 -11 -12 -12 -12 -12 -12 -12 -12 -12 -12 -13 -13
-20 -19 -18 -18 -18 -19 -18 -15 -14 -13 -13 -13 -13 -13 -13 -14 -13 -13 -13 -13 -13 -13 -12 -12 -11 -11 -11 -11 -10 -10 -10 -10 -10 -11 -11 -11 -11 -11 -12 -12 -12 -13 -13 -13 -12 -12 -13 -13 -13
-22 -22 -22 -21 -20 -19 -20 -18 -15 -13 -13 -13 -13 -13 -12 -13 -13 -13 -13 -12 -13 -13 -13 -12 -12 -11 -11 -10 -10 -10 -10 -11 -11 -11 -10 -11 -11 -12 -12 -12 -12 -13 -13 -13 -13 -13 -13 -13 -13
-22 -23 -23 -23 -21 -19 -19 -19 -15 -14 -13 -13 -13 -13 -13 -13 -13 -13 -13 -13 -13 -13 -13 -12 -11 -11 -11 -11 -10 -10 -10 -11 -11 -11 -11 -11 -12 -12 -12 -12 -12 -13 -13 -12 -12 -13 -13 -13 -13
-23 -23 -24 -24 -23 -21 -18 -20 -15 -14 -13 -13 -13 -13 -13 -14 -13 -13 -13 -13 -13 -13 -13 -13 -12 -11 -11 -11 -11 -11 -11 -11 -11 -11 -11 -12 -12 -12 -12 -12 -12 -13 -13 -12 -13 -13 -13 -13 -13
-24 -24 -24 -24 -23 -19 -19 -19 -16 -15 -14 -13 -13 -14 -14 -13 -14 -13 -13 -13 -13 -13 -13 -13 -12 -11 -11 -11 -11 -11 -12 -12 -12 -12 -12 -12 -12 -12 -13 -12 -12 -12 -13 -13 -13 -13 -13 -13 -13
-24 -24 -24 -23 -20 -18 -18 -18 -16 -15 -14 -14 -13 -14 -14 -14 -14 -13 -13 -13 -13 -13 -14 -13 -13 -12 -12 -12 -12 -12 -12 -12 -12 -12 -12 -12 -12 -13 -12 -12 -12 -12 -12 -13 -13 -13 -13 -13 -14
-23 -24 -24 -23 -20 -19 -18 -17 -16 -15 -14 -14 -14 -14 -14 -14 -14 -13 -13 -13 -13 -13 -13 -14 -13 -13 -13 -13 -13 -14 -13 -12 -13 -13 -13 -12 -12 -12 -12 -12 -12 -12 -12 -13 -13 -13 -13 -13 -14
-24 -23 -22 -20 -19 -18 -16 -16 -15 -15 -15 -14 -14 -14 -14 -14 -14 -13 -13 -14 -13 -13 -13 -13 -14 -13 -13 -13 -13 -13 -13 -13 -13 -13 -13 -12 -12 -12 -12 -12 -12 -12 -13 -13 -13 -13 -13 -14 -14
-22 -21 -20 -19 -18 -16 -17 -16 -15 -15 -15 -15 -16 -14 -14 -14 -14 -13 -13 -14 -13 -14 -13 -13 -13 -14 -13 -13 -13 -13 -13 -13 -13 -13 -13 -12 -12 -12 -12 -12 -12 -13 -13 -13 -13 -14 -14 -14 -14
-20 -20 -18 -19 -17 -16 -16 -16 -15 -15 -15 -15 -16 -15 -14 -14 -14 -14 -13 -14 -14 -14 -13 -13 -14 -13 -14 -13 -13 -13 -13 -13 -13 -13 -13 -12 -11 -12 -13 -13 -13 -13 -13 -13 -13 -13 -14 -14 -14

GFSSGP_500_temp_219.txt.gz
Temp
-10 -10 -11 -10 -10 -10 -10 -10 -9 -10 -10 -10 -10 -10 -11 -10 -10 -10 -11 -11 -10 -10 -10 -10 -9 -9 -9 -9 -9 -9 -9 -9 -9 -9 -9 -9 -8 -8 -8 -8 -8 -8 -9 -9 -9 -9 -9 -9 -9
-11 -11 -11 -11 -10 -9 -10 -10 -10 -10 -10 -10 -10 -10 -10 -10 -10 -10 -11 -11 -10 -10 -10 -9 -10 -9 -9 -9 -9 -9 -9 -9 -9 -9 -9 -8 -8 -8 -8 -8 -8 -9 -9 -8 -9 -9 -9 -9 -9
-11 -10 -11 -11 -10 -10 -11 -10 -10 -10 -10 -10 -10 -10 -10 -10 -11 -10 -11 -11 -11 -11 -10 -9 -9 -10 -9 -9 -9 -9 -9 -9 -9 -9 -8 -8 -9 -8 -8 -8 -9 -9 -9 -9 -9 -9 -9 -9 -10
-11 -11 -10 -10 -10 -11 -11 -11 -11 -10 -10 -10 -10 -10 -11 -11 -11 -11 -10 -11 -11 -11 -10 -10 -10 -9 -9 -9 -9 -9 -9 -9 -9 -9 -9 -9 -9 -9 -9 -9 -9 -9 -9 -9 -9 -9 -9 -9 -9
-11 -11 -11 -10 -10 -11 -12 -11 -11 -10 -11 -10 -10 -11 -11 -11 -11 -11 -11 -11 -11 -11 -11 -10 -10 -10 -9 -9 -9 -9 -9 -9 -9 -9 -9 -9 -9 -9 -9 -9 -9 -9 -9 -9 -9 -9 -10 -10 -10
-11 -11 -11 -11 -11 -11 -12 -12 -12 -11 -11 -10 -11 -11 -11 -11 -11 -11 -11 -11 -11 -11 -11 -10 -10 -9 -9 -9 -9 -9 -9 -9 -9 -9 -9 -9 -9 -9 -9 -9 -9 -9 -9 -9 -9 -10 -10 -10 -10
-10 -11 -11 -11 -11 -11 -12 -12 -12 -12 -11 -11 -11 -11 -11 -11 -11 -11 -11 -11 -11 -11 -11 -10 -10 -10 -9 -9 -9 -9 -9 -9 -9 -9 -9 -9 -9 -9 -9 -9 -9 -9 -9 -9 -10 -10 -10 -10 -10
-11 -10 -10 -11 -11 -11 -12 -12 -12 -12 -12 -11 -11 -11 -11 -11 -11 -11 -11 -11 -11 -11 -11 -10 -10 -10 -10 -9 -9 -9 -9 -9 -9 -9 -9 -9 -9 -9 -9 -9 -10 -10 -9 -10 -10 -10 -10 -10 -10
-11 -11 -10 -11 -11 -11 -11 -12 -12 -12 -12 -12 -11 -11 -11 -11 -12 -11 -11 -11 -11 -11 -11 -11 -10 -10 -10 -10 -9 -9 -9 -9 -9 -9 -9 -9 -9 -9 -9 -9 -10 -10 -10 -10 -10 -10 -10 -10 -10
-11 -11 -11 -11 -11 -11 -11 -11 -12 -12 -12 -12 -12 -11 -11 -12 -12 -11 -11 -11 -11 -11 -12 -11 -11 -10 -10 -10 -9 -9 -9 -9 -9 -9 -9 -9 -9 -9 -9 -9 -10 -10 -10 -10 -10 -10 -10 -10 -10
-12 -11 -11 -11 -11 -12 -11 -11 -11 -12 -12 -12 -13 -12 -12 -12 -12 -11 -11 -11 -11 -11 -11 -11 -11 -10 -10 -10 -10 -9 -9 -9 -9 -9 -9 -9 -9 -9 -9 -9 -10 -10 -10 -10 -10 -10 -10 -11 -10
-11 -12 -12 -12 -12 -12 -12 -11 -12 -11 -12 -12 -13 -13 -12 -12 -11 -11 -12 -11 -11 -11 -11 -10 -10 -10 -10 -9 -10 -9 -9 -9 -9 -9 -9 -9 -9 -9 -10 -10 -10 -10 -10 -10 -10 -10 -11 -11 -11
-12 -12 -12 -12 -12 -12 -12 -11 -11 -12 -12 -12 -12 -13 -13 -12 -12 -11 -11 -11 -11 -11 -11 -10 -10 -10 -10 -10 -10 -10 -9 -9 -9 -9 -9 -9 -10 -10 -10 -10 -10 -10 -10 -10 -10 -10 -11 -11 -11
-12 -13 -13 -13 -13 -12 -12 -12 -11 -12 -12 -12 -12 -13 -13 -12 -12 -11 -12 -12 -12 -12 -11 -11 -11 -10 -10 -10 -10 -9 -9 -9 -9 -9 -9 -10 -10 -10 -10 -10 -11 -11 -11 -11 -11 -11 -11 -11 -11
-13 -13 -13 -13 -13 -13 -12 -12 -11 -12 -12 -12 -12 -12 -13 -13 -12 -12 -12 -12 -12 -12 -11 -11 -11 -11 -10 -10 -10 -10 -10 -9 -9 -9 -10 -10 -10 -10 -10 -10 -11 -11 -11 -11 -11 -11 -11 -11 -11
-13 -13 -13 -13 -13 -13 -13 -11 -12 -12 -13 -12 -12 -13 -13 -13 -13 -12 -12 -12 -12 -12 -12 -11 -11 -11 -11 -11 -10 -10 -10 -10 -10 -10 -10 -10 -10 -10 -10 -11 -11 -11 -11 -11 -11 -11 -11 -11 -11
-14 -14 -14 -14 -14 -14 -13 -12 -13 -13 -13 -13 -13 -13 -13 -13 -14 -13 -13 -13 -12 -12 -12 -12 -11 -11 -11 -11 -11 -10 -10 -10 -10 -10 -10 -10 -10 -10 -11 -11 -11 -11 -11 -11 -11 -11 -11 -11 -11
-14 -13 -13 -13 -14 -14 -13 -13 -13 -13 -13 -13 -13 -13 -13 -13 -14 -14 -14 -13 -13 -12 -12 -12 -11 -11 -11 -11 -11 -10 -10 -10 -10 -10 -10 -10 -10 -11 -11 -11 -11 -11 -11 -12 -12 -12 -12 -12 -12
-16 -16 -15 -15 -16 -16 -14 -13 -13 -13 -14 -13 -13 -13 -13 -13 -14 -14 -14 -13 -12 -12 -12 -12 -12 -11 -11 -11 -11 -11 -11 -11 -10 -10 -10 -10 -10 -11 -11 -11 -11 -11 -12 -12 -12 -12 -12 -12 -12
-17 -17 -17 -17 -18 -17 -16 -15 -15 -13 -13 -13 -13 -13 -13 -14 -14 -14 -14 -14 -13 -12 -12 -12 -12 -12 -12 -11 -11 -11 -11 -11 -10 -10 -10 -10 -10 -11 -11 -11 -11 -11 -12 -12 -12 -12 -12 -12 -12
-17 -17 -18 -18 -18 -18 -18 -16 -16 -15 -13 -13 -14 -13 -13 -13 -14 -14 -14 -14 -13 -12 -12 -13 -13 -12 -12 -11 -11 -11 -11 -10 -10 -10 -10 -11 -11 -11 -11 -11 -11 -12 -12 -12 -12 -12 -13 -13 -13
-17 -18 -18 -18 -19 -19 -20 -14 -16 -16 -15 -13 -13 -13 -13 -12 -14 -13 -14 -14 -14 -13 -13 -13 -13 -12 -12 -11 -11 -11 -11 -11 -11 -11 -11 -11 -11 -11 -11 -11 -12 -12 -12 -12 -12 -12 -13 -13 -13
-18 -19 -19 -19 -19 -20 -20 -20 -13 -17 -16 -13 -13 -13 -13 -13 -13 -13 -13 -14 -14 -14 -14 -13 -13 -12 -12 -11 -11 -11 -11 -11 -11 -11 -10 -10 -10 -11 -11 -12 -12 -12 -12 -12 -12 -12 -12 -12 -12
-19 -19 -20 -20 -20 -21 -22 -22 -18 -17 -16 -15 -13 -14 -13 -13 -13 -14 -13 -14 -14 -14 -14 -13 -13 -13 -13 -12 -12 -11 -11 -11 -11 -11 -11 -11 -12 -12 -12 -12 -12 -12 -12 -12 -12 -12 -12 -12 -12
-20 -21 -21 -21 -21 -22 -22 -23 -21 -19 -18 -17 -14 -14 -13 -13 -13 -13 -14 -14 -14 -14 -14 -14 -14 -14 -13 -12 -12 -11 -11 -11 -11 -11 -11 -11 -12 -12 -12 -12 -12 -12 -12 -12 -12 -12 -12 -12 -12
-21 -21 -22 -23 -24 -24 -24 -23 -21 -20 -19 -18 -15 -14 -14 -13 -13 -13 -14 -14 -14 -14 -14 -14 -14 -14 -13 -13 -12 -12 -11 -11 -12 -12 -12 -12 -12 -12 -12 -12 -12 -12 -12 -12 -12 -13 -13 -13 -13
-21 -21 -23 -24 -24 -24 -23 -22 -21 -19 -19 -17 -16 -15 -14 -13 -13 -13 -14 -14 -14 -15 -14 -14 -14 -14 -14 -13 -13 -12 -12 -12 -12 -13 -12 -12 -12 -12 -12 -12 -12 -12 -12 -12 -12 -13 -13 -13 -13
-22 -23 -24 -24 -25 -23 -22 -21 -20 -18 -18 -17 -16 -15 -15 -14 -14 -14 -14 -14 -14 -15 -15 -14 -14 -14 -13 -13 -13 -13 -13 -13 -13 -13 -13 -12 -13 -13 -12 -12 -12 -12 -12 -13 -12 -13 -13 -13 -13
-22 -23 -22 -23 -24 -22 -20 -19 -17 -16 -16 -17 -16 -15 -14 -14 -14 -14 -14 -14 -14 -15 -15 -14 -14 -14 -14 -13 -13 -13 -13 -13 -13 -13 -14 -13 -13 -13 -13 -12 -12 -12 -13 -13 -12 -12 -13 -13 -13
-21 -21 -20 -21 -21 -21 -20 -17 -16 -17 -17 -16 -15 -15 -15 -15 -15 -15 -15 -15 -14 -15 -14 -14 -14 -14 -14 -14 -13 -13 -13 -14 -14 -14 -14 -14 -13 -13 -12 -12 -12 -12 -13 -13 -13 -13 -13 -13 -13